SCP
0 0 0 0 0 0 0 0 0 0 0 0 0 0 0 0 0 0 0 0 -0 -0 -0 -0 -0 -0 -0 -0 -0 0 0 0 0 0 0 0 0 0 0 0 0 0 0 0 0 0 0 0 0
0 0 0 0 0 0 0 -0 0 0 0 0 0 0 0 0 0 0 0 0 -0 -0 0 0 0 -0 -0 -0 0 0 0 0 0 0 0 0 0 0 0 0 0 0 0 0 0 0 0 0 0
0 0 0 0 0 0 0 0 0 0 0 0 0 0 0 0 0 0 0 -0 0 0 0 0 -0 -0 -0 -0 -0 0 0 0 0 0 0 0 0 0 0 0 0 0 0 0 0 0 0 0 0
0 0 0 0 0 0 0 0 0 0 0 0 0 0 0 0 0 0 0 0 -0 0 0 0 0 0 0 0 0 0 0 0 0 0 0 0 0 0 0 0 0 0 0 0 0 0 0 0 0
0 0 0 0 0 0 0 0 0 0 0 0 0 0 0 0 0 0 0 0 0 0 0 0 0 0 0 0 0 0 0 0 0 0 0 0 0 0 0 0 0 0 0 0 0 0 0 0 0
0 0 0 0 0 0 0 0 0 0 0 0 0 0 0 0 0 0 0 0 0 0 0 0 0 0 0 0 0 0 0 0 0 0 0 0 0 0 0 0 0 0 0 0 0 0 0 0 0
0 0 0 0 0 0 0 0 0 0 0 0 0 0 0 0 0 0 0 0 0 0 0 0 0 0 0 0 0 0 0 0 0 0 0 0 0 0 0 0 0 0 0 0 0 0 0 0 0
0 0 0 0 0 0 0 0 0 0 0 0 0 0 0 0 0 0 0 0 0 0 0 0 0 0 0 0 0 0 0 0 0 0 0 0 0 0 0 0 0 0 0 0 0 0 0 0 0
0 0 0 0 0 0 0 0 0 0 0 0 0 0 0 0 0 0 0 0 0 0 0 0 0 0 0 0 0 0 0 0 0 0 0 0 0 0 0 0 0 0 0 0 0 0 0 0 0
0 0 0 0 0 0 0 0 0 0 0 0 0 0 0 0 0 0 0 0 0 0 0 0 0 0 0 0 0 0 0 0 0 0 0 0 0 0 0 0 0 0 0 0 0 0 0 0 0
0 0 0 0 0 0 0 0 0 0 0 0 0 0 0 0 0 0 0 0 0 0 0 0 0 0 0 0 0 0 0 0 0 0 0 0 0 0 0 0 0 0 0 0 0 0 0 0 0
0 0 0 0 0 0 0 0 0 0 0 0 0 0 0 0 0 0 0 0 0 0 0 0 0 0 0 0 0 0 0 0 0 0 0 0 0 0 0 0 0 0 0 0 0 0 0 0 0
0 0 0 0 0 0 0 0 0 0 0 0 0 0 0 0 0 0 0 0 0 0 0 0 0 0 0 0 0 0 0 0 0 0 0 0 0 0 0 0 0 0 0 0 0 0 0 0 0
0 0 0 0 0 0 0 0 0 0 0 0 0 0 0 0 0 0 0 0 0 0 0 0 0 0 0 0 0 0 0 0 0 0 0 0 0 0 0 0 0 0 0 0 0 0 0 0 0
0 0 0 0 0 0 0 0 0 0 0 0 0 0 0 0 0 0 0 0 0 0 0 0 0 0 0 0 0 0 0 0 0 0 0 0 0 0 0 0 0 0 0 0 0 0 0 0 0
0 0 0 0 0 0 0 0 0 0 0 0 0 0 0 0 0 0 0 0 0 0 0 0 0 0 0 0 0 0 0 0 0 0 0 0 0 0 0 0 0 0 0 0 0 0 0 0 0
0 0 0 0 0 0 0 0 0 0 0 0 0 0 0 0 0 0 0 0 0 0 0 0 0 0 0 0 0 0 0 0 0 0 0 0 0 0 0 0 0 0 0 0 0 0 0 0 0
0 0 0 0 0 0 0 0 0 0 0 0 0 0 0 0 0 0 0 0 0 0 0 0 0 0 0 0 0 0 0 0 0 0 0 0 0 0 0 0 0 0 0 0 0 0 0 0 0
0 0 0 0 0 0 0 0 0 0 0 0 0 0 0 0 0 0 0 0 0 0 0 0 0 0 0 0 0 0 0 0 0 0 0 0 0 0 0 0 0 0 0 0 0 0 0 0 0
0 0 0 0 0 0 0 0 0 0 0 0 0 0 0 0 0 0 0 0 0 0 0 0 0 0 0 0 0 0 0 0 0 0 0 0 0 0 0 0 0 0 0 0 0 0 0 0 0
0 0 0 0 0 0 0 0 0 0 0 0 0 0 0 0 0 0 0 0 0 0 0 0 0 0 0 0 0 0 0 0 0 0 0 0 0 0 0 0 0 0 0 0 0 0 0 0 0
0 0 0 0 0 0 0 -0 0 0 0 0 0 0 0 0 0 0 0 0 0 0 0 0 0 0 0 0 0 0 0 0 0 0 0 0 0 0 0 0 0 0 0 0 0 0 0 0 0
0 0 0 0 0 0 0 0 -0 0 0 0 0 0 0 0 0 0 0 0 0 0 0 0 0 0 0 0 0 0 0 0 0 0 0 0 0 0 0 0 0 0 0 0 0 0 0 0 0
0 0 0 0 0 0 0 0 0 0 0 0 0 0 0 0 0 0 0 0 0 0 0 0 0 0 0 0 0 0 0 0 0 0 0 0 0 0 0 0 0 0 0 0 0 0 0 0 0
0 0 0 0 0 0 0 0 0 0 0 0 0 0 0 0 0 0 0 0 0 0 0 0 0 0 0 0 0 0 0 0 0 0 0 0 0 0 0 0 0 0 0 0 0 0 0 0 0
0 0 0 0 0 0 0 0 0 0 0 0 0 0 0 0 0 0 0 0 0 0 0 0 0 0 0 0 0 0 0 0 0 0 0 0 0 0 0 0 0 0 0 0 0 0 0 0 0
0 0 0 0 0 0 0 0 0 0 0 0 0 0 0 0 0 0 0 0 0 0 0 0 0 0 0 0 0 0 0 0 0 0 0 0 0 0 0 0 0 0 0 0 0 0 0 0 0
0 0 0 0 0 0 0 0 0 0 0 0 0 0 0 0 0 0 0 0 0 0 0 0 0 0 0 0 0 0 0 0 0 0 0 0 0 0 0 0 0 0 0 0 0 0 0 0 0
0 0 0 0 0 0 0 0 0 0 0 0 0 0 0 0 0 0 0 0 0 0 0 0 0 0 0 0 0 0 0 0 0 0 0 0 0 0 0 0 0 0 0 0 0 0 0 0 0
0 0 0 0 0 0 0 0 0 0 0 0 0 0 0 0 0 0 0 0 0 0 0 0 0 0 0 0 0 0 0 0 0 0 0 0 0 0 0 0 0 0 0 0 0 0 0 0 0
Wind_Speed_500mb
8 11 5 6 12 12 23 13 12 11 11 8 7 9 9 13 6 4 16 14 25 33 39 35 32 30 28 17 15 12 10 9 8 7 5 4 4 4 3 4 7 6 5 8 12 12 14 15 17
13 20 12 8 13 20 19 20 17 15 9 8 7 10 11 5 11 11 11 21 31 33 32 38 34 30 24 21 18 14 13 10 8 6 6 5 4 2 2 3 6 12 16 17 16 15 17 19 17
18 22 12 8 18 25 16 2 14 7 9 11 9 5 4 8 10 17 13 27 30 28 31 32 34 28 23 22 17 15 14 12 9 7 5 4 2 2 2 4 6 9 13 16 19 21 23 26 24
10 11 10 15 28 23 22 2 3 11 8 15 10 10 7 11 11 11 20 28 28 27 26 24 21 22 22 21 20 19 15 12 8 5 3 3 6 8 9 11 13 14 17 19 21 23 24 23 25
15 11 17 24 32 32 11 16 12 11 5 17 18 9 6 10 12 15 22 28 28 27 23 24 24 23 22 21 20 17 15 12 10 9 9 10 13 16 17 17 18 19 22 24 25 25 27 27 26
18 13 17 28 34 26 15 23 22 23 20 10 13 17 10 12 19 23 25 29 28 27 24 23 23 23 23 21 19 17 16 14 14 14 14 16 18 19 20 21 21 21 22 25 27 28 28 28 29
27 16 29 35 30 21 18 9 25 27 30 29 10 18 7 15 20 26 28 29 29 28 26 22 24 28 26 25 23 20 18 17 16 16 16 17 17 18 20 21 22 23 25 26 27 30 31 31 31
26 13 33 30 28 36 17 13 10 18 23 4 9 12 16 24 25 26 27 28 29 28 29 27 26 26 29 29 26 24 22 19 18 19 18 18 18 19 20 21 22 23 26 29 30 32 32 33 34
13 15 24 37 29 20 12 16 15 6 15 12 16 8 8 23 27 28 28 28 29 32 32 31 32 32 30 31 29 28 25 24 22 21 20 19 20 20 22 22 24 25 26 29 32 33 34 34 37
24 21 35 34 24 15 15 22 18 16 24 25 25 19 21 23 27 30 32 33 34 35 37 36 34 33 32 32 28 28 27 26 24 23 23 22 23 23 24 25 27 28 30 33 34 35 36 34 34
20 34 33 26 27 26 25 22 20 21 25 31 36 32 32 31 31 32 33 33 35 32 35 39 37 37 34 34 31 30 29 28 27 26 25 25 25 25 26 28 30 32 34 35 37 39 40 38 36
27 42 43 27 30 20 28 24 22 39 40 11 25 19 36 36 37 36 36 36 36 37 37 40 40 38 38 37 34 34 32 31 30 29 27 26 26 27 28 30 32 34 35 37 39 40 39 40 41
39 38 28 44 25 36 27 35 36 40 41 27 21 27 34 34 35 34 35 35 38 39 39 41 42 42 40 39 38 37 36 32 31 28 27 26 27 29 31 33 35 37 38 39 39 41 41 40 40
18 46 38 31 43 29 32 41 33 42 45 48 37 39 36 35 34 32 35 39 41 44 43 43 43 43 43 40 40 38 36 34 31 30 28 27 28 30 33 36 38 39 40 41 42 41 40 39 39
32 28 24 33 38 32 31 41 51 64 30 37 52 46 41 39 38 42 39 42 44 43 45 47 47 47 47 44 42 40 39 35 33 31 28 28 27 30 32 34 37 40 41 42 42 41 40 37 34
22 31 38 33 42 20 28 45 41 66 53 50 45 46 41 39 40 37 44 47 44 46 47 52 54 53 51 48 46 43 41 36 34 31 30 28 28 29 31 35 37 40 40 40 39 38 39 37 34
29 27 39 40 23 27 36 35 35 22 40 46 49 47 43 38 35 42 44 43 46 50 51 49 56 57 54 53 49 44 41 38 37 34 32 32 31 33 36 40 42 43 42 39 38 36 35 34 34
29 34 39 34 23 34 33 46 19 18 30 42 45 50 50 47 45 42 49 47 47 48 48 49 54 57 58 56 51 47 45 42 40 37 36 35 36 38 40 42 42 39 37 37 37 37 34 33 32
42 40 42 38 31 28 39 44 43 37 31 37 44 49 49 48 39 50 50 49 50 51 50 51 54 56 58 57 53 49 44 42 41 41 40 39 41 43 43 41 40 39 37 38 38 37 34 28 26
45 44 53 37 8 14 29 45 41 41 41 53 52 52 54 47 43 47 45 46 43 42 46 49 51 53 53 51 47 41 36 38 36 42 41 42 44 45 42 41 40 42 41 39 37 33 29 26 25
47 49 44 41 12 22 25 46 44 47 55 59 65 63 57 58 51 45 45 41 38 37 40 44 46 49 49 48 48 45 41 41 40 43 44 46 44 45 45 45 46 45 42 37 35 31 27 22 19
46 48 43 34 20 25 16 26 36 38 52 49 57 60 62 59 49 44 46 42 36 34 36 39 42 42 45 46 43 41 38 33 27 33 38 44 48 47 49 48 47 44 41 37 33 29 29 26 18
39 27 26 35 31 23 33 12 39 32 44 41 38 58 54 52 53 50 45 44 37 36 35 37 38 40 41 40 40 40 39 37 39 43 43 45 46 49 46 46 43 41 38 35 34 32 30 32 30
3 5 5 2 9 18 39 25 54 38 25 34 35 49 53 53 50 44 39 43 40 39 37 36 36 35 36 37 39 40 41 39 40 39 39 38 38 40 40 39 39 38 37 34 32 34 32 32 30
23 19 9 11 11 15 21 26 45 16 12 17 25 45 52 53 50 48 44 45 40 40 38 37 36 36 37 38 39 40 40 41 42 39 37 34 36 36 35 34 33 34 35 34 34 33 31 31 30
50 39 15 18 14 15 10 23 21 1 5 4 8 47 53 53 51 46 40 39 39 37 36 36 35 36 36 36 37 38 39 39 39 37 37 37 36 38 37 36 34 34 36 35 36 36 34 32 30
15 26 13 6 2 2 12 13 31 18 12 12 11 44 49 51 46 43 38 37 35 38 36 34 34 34 35 34 36 37 37 36 36 38 39 39 40 41 39 38 39 39 40 39 39 38 37 34 33
13 25 9 9 11 12 16 13 23 15 20 20 24 37 48 47 41 37 36 37 37 37 36 34 33 31 31 32 34 34 34 34 35 38 39 39 40 40 40 37 39 39 40 39 38 38 36 36 33
13 12 11 4 8 9 5 9 2 2 17 27 26 43 50 47 41 38 36 37 37 32 29 27 26 27 29 30 32 32 32 34 35 35 36 36 37 38 37 35 35 34 34 32 34 34 35 35 33
29 14 28 14 14 9 6 14 2 3 6 20 29 45 42 41 42 39 39 35 33 29 25 22 22 23 25 28 31 31 32 33 34 34 35 34 33 32 31 30 32 33 32 33 34 34 34 34 32
Wind_Direction_500mb
158 143 168 208 239 235 251 234 232 196 200 199 281 207 243 331 323 31 154 156 147 165 175 186 196 206 214 208 191 188 178 164 150 140 128 111 122 131 185 219 228 234 228 234 238 241 254 264 260
159 141 152 246 254 233 242 206 205 211 95 176 170 225 248 141 64 115 128 147 152 168 175 197 201 208 216 190 189 186 184 182 171 158 130 127 124 131 172 223 231 241 253 257 262 259 256 262 264
156 149 213 221 239 249 275 73 243 145 180 184 195 238 333 82 100 141 161 155 156 158 193 202 205 204 201 192 191 190 191 188 187 186 177 163 172 203 264 275 267 265 264 265 263 260 256 257 255
159 182 227 240 246 247 276 326 257 197 174 199 220 210 135 173 138 160 157 153 154 158 202 192 197 197 193 193 192 198 200 205 211 226 253 288 296 298 295 287 280 273 270 269 270 270 265 260 262
181 225 236 233 244 262 253 279 257 238 216 192 200 216 156 201 176 157 158 154 161 154 197 190 194 195 198 196 200 206 210 214 230 250 268 286 296 299 298 293 288 285 284 282 280 276 274 273 268
199 245 235 234 241 232 247 265 245 241 234 185 221 239 153 205 187 175 168 161 165 164 162 202 200 200 202 203 205 210 219 225 239 256 273 285 291 294 295 296 295 292 288 285 284 284 283 281 278
240 216 247 257 256 245 240 234 240 249 241 228 238 234 138 180 178 176 168 166 169 172 173 195 199 204 208 208 208 215 224 232 245 261 273 282 286 289 292 294 296 297 296 294 292 291 289 286 283
241 251 256 249 251 249 200 194 219 236 254 158 195 237 214 184 185 172 169 172 173 183 189 196 206 206 213 214 215 222 232 242 253 264 272 278 284 288 292 295 298 301 300 300 299 295 291 288 284
212 238 237 243 249 248 159 214 201 207 232 214 205 254 145 184 181 175 179 185 189 197 201 208 211 210 215 221 220 227 235 245 254 263 270 272 276 281 284 288 293 295 298 299 300 300 298 296 289
211 233 237 250 261 244 220 229 212 214 206 219 208 209 195 189 191 191 195 198 202 208 209 216 220 221 221 230 228 235 239 246 253 257 260 264 271 278 284 289 293 296 300 300 301 301 301 298 295
217 239 241 246 248 249 238 224 209 222 234 224 218 205 205 204 203 209 211 209 212 212 214 218 222 225 226 232 233 235 239 244 248 252 257 264 270 276 282 288 294 299 301 303 304 304 303 301 297
253 243 255 257 228 226 223 232 222 230 232 243 228 217 197 204 209 211 215 212 210 208 215 222 224 225 227 232 233 237 240 244 248 252 258 266 273 280 284 287 291 293 296 299 301 302 301 299 297
234 254 246 237 229 228 242 237 236 244 241 231 212 205 199 209 215 215 215 215 211 210 212 224 224 226 229 230 233 236 241 243 249 256 262 270 277 282 287 291 293 295 296 297 299 299 299 298 295
220 248 244 241 233 232 229 242 239 247 242 233 223 221 216 216 213 212 213 211 213 217 216 224 228 228 231 232 235 238 241 244 248 255 263 269 277 285 291 295 296 297 298 299 299 298 296 295 293
244 254 240 238 234 233 237 254 233 241 228 230 229 227 223 224 219 220 219 216 218 222 223 226 232 229 231 231 234 237 240 242 248 255 261 271 280 288 291 293 295 296 299 300 300 301 299 297 292
233 237 250 234 216 217 192 254 226 236 229 228 230 225 219 217 220 209 209 212 212 222 225 227 230 230 229 229 231 233 239 242 249 254 262 270 280 289 292 294 294 294 295 295 296 297 298 297 292
220 242 229 241 213 190 208 261 251 202 206 218 221 219 216 214 213 220 220 219 221 225 222 224 228 229 227 226 229 232 237 241 248 253 260 271 282 291 294 295 294 293 292 292 292 293 294 292 288
219 221 242 238 181 209 216 244 235 206 221 224 221 222 221 219 219 219 222 225 228 232 230 225 227 226 223 225 227 231 236 240 247 252 259 270 279 287 291 293 293 293 291 291 290 292 290 288 284
241 243 239 245 244 211 234 244 244 231 219 227 219 216 216 217 211 223 227 235 240 238 233 223 222 222 220 221 223 229 235 241 247 253 261 270 278 286 289 287 286 288 289 289 290 289 288 282 278
240 248 253 259 196 223 259 255 250 248 231 224 224 219 218 213 208 222 226 231 233 230 221 215 215 217 217 218 220 225 233 239 246 256 264 271 278 281 283 281 282 284 286 288 288 285 281 276 273
230 232 239 248 189 242 278 274 253 245 242 237 227 226 221 216 208 210 214 216 215 213 209 207 209 212 212 215 219 226 233 245 254 262 269 274 276 280 281 280 281 281 282 280 278 277 272 260 262
232 227 237 237 244 245 182 276 258 246 229 227 228 221 224 216 208 201 200 202 199 195 196 196 202 204 210 217 223 229 238 247 257 253 267 274 279 280 280 279 278 276 275 273 269 267 260 258 240
235 233 238 234 234 246 239 257 260 238 242 221 223 221 218 206 199 193 188 189 188 188 185 191 197 203 211 217 224 232 239 247 252 263 269 272 276 279 277 277 276 273 270 265 263 259 256 252 244
139 93 79 159 206 229 223 208 268 243 236 228 214 210 202 197 192 187 181 185 185 187 187 190 197 204 213 221 230 240 246 251 259 266 270 274 275 276 279 275 272 269 265 262 260 259 256 254 249
160 155 202 204 205 230 195 205 237 261 240 259 217 185 186 181 183 179 179 181 185 191 195 202 208 215 225 231 238 243 249 255 260 263 266 268 270 274 275 275 272 269 264 259 257 260 257 253 250
191 194 208 217 203 218 175 207 240 4 133 113 185 176 172 177 178 177 178 181 189 194 201 208 214 221 230 237 243 250 255 257 261 264 265 266 268 271 271 273 268 264 261 262 261 260 258 255 251
163 211 222 133 210 191 191 260 284 189 187 186 171 170 177 176 175 171 173 179 187 194 202 210 218 225 234 241 248 253 256 258 262 265 268 269 270 272 272 269 268 265 265 263 263 259 257 254 253
201 161 173 213 185 224 210 243 238 185 204 187 182 182 177 171 170 170 177 183 191 197 206 212 220 227 235 243 249 254 260 265 266 267 269 270 270 269 271 269 268 266 265 262 258 253 251 250 250
172 169 203 209 223 216 239 233 342 295 200 185 181 176 172 167 168 172 176 183 189 193 201 210 222 232 239 244 249 254 260 264 267 269 270 269 269 269 268 267 266 265 262 258 254 252 247 247 247
234 200 192 205 196 244 340 255 37 11 358 164 167 165 162 163 169 172 178 178 180 186 195 209 223 236 245 251 253 256 258 262 267 270 270 270 269 265 265 265 266 264 264 260 254 254 250 247 245
Wind_Speed_850mb
8 11 5 6 12 12 23 13 12 11 11 8 7 9 9 13 6 4 16 14 25 33 39 35 32 30 28 17 15 12 10 9 8 7 5 4 4 4 3 4 7 6 5 8 12 12 14 15 17
13 20 12 8 13 20 19 20 17 15 9 8 7 10 11 5 11 11 11 21 31 33 32 38 34 30 24 21 18 14 13 10 8 6 6 5 4 2 2 3 6 12 16 17 16 15 17 19 17
18 22 12 8 18 25 16 2 14 7 9 11 9 5 4 8 10 17 13 27 30 28 31 32 34 28 23 22 17 15 14 12 9 7 5 4 2 2 2 4 6 9 13 16 19 21 23 26 24
10 11 10 15 28 23 22 2 3 11 8 15 10 10 7 11 11 11 20 28 28 27 26 24 21 22 22 21 20 19 15 12 8 5 3 3 6 8 9 11 13 14 17 19 21 23 24 23 25
15 11 17 24 32 32 11 16 12 11 5 17 18 9 6 10 12 15 22 28 28 27 23 24 24 23 22 21 20 17 15 12 10 9 9 10 13 16 17 17 18 19 22 24 25 25 27 27 26
18 13 17 28 34 26 15 23 22 23 20 10 13 17 10 12 19 23 25 29 28 27 24 23 23 23 23 21 19 17 16 14 14 14 14 16 18 19 20 21 21 21 22 25 27 28 28 28 29
27 16 29 35 30 21 18 9 25 27 30 29 10 18 7 15 20 26 28 29 29 28 26 22 24 28 26 25 23 20 18 17 16 16 16 17 17 18 20 21 22 23 25 26 27 30 31 31 31
26 13 33 30 28 36 17 13 10 18 23 4 9 12 16 24 25 26 27 28 29 28 29 27 26 26 29 29 26 24 22 19 18 19 18 18 18 19 20 21 22 23 26 29 30 32 32 33 34
13 15 24 37 29 20 12 16 15 6 15 12 16 8 8 23 27 28 28 28 29 32 32 31 32 32 30 31 29 28 25 24 22 21 20 19 20 20 22 22 24 25 26 29 32 33 34 34 37
24 21 35 34 24 15 15 22 18 16 24 25 25 19 21 23 27 30 32 33 34 35 37 36 34 33 32 32 28 28 27 26 24 23 23 22 23 23 24 25 27 28 30 33 34 35 36 34 34
20 34 33 26 27 26 25 22 20 21 25 31 36 32 32 31 31 32 33 33 35 32 35 39 37 37 34 34 31 30 29 28 27 26 25 25 25 25 26 28 30 32 34 35 37 39 40 38 36
27 42 43 27 30 20 28 24 22 39 40 11 25 19 36 36 37 36 36 36 36 37 37 40 40 38 38 37 34 34 32 31 30 29 27 26 26 27 28 30 32 34 35 37 39 40 39 40 41
39 38 28 44 25 36 27 35 36 40 41 27 21 27 34 34 35 34 35 35 38 39 39 41 42 42 40 39 38 37 36 32 31 28 27 26 27 29 31 33 35 37 38 39 39 41 41 40 40
18 46 38 31 43 29 32 41 33 42 45 48 37 39 36 35 34 32 35 39 41 44 43 43 43 43 43 40 40 38 36 34 31 30 28 27 28 30 33 36 38 39 40 41 42 41 40 39 39
32 28 24 33 38 32 31 41 51 64 30 37 52 46 41 39 38 42 39 42 44 43 45 47 47 47 47 44 42 40 39 35 33 31 28 28 27 30 32 34 37 40 41 42 42 41 40 37 34
22 31 38 33 42 20 28 45 41 66 53 50 45 46 41 39 40 37 44 47 44 46 47 52 54 53 51 48 46 43 41 36 34 31 30 28 28 29 31 35 37 40 40 40 39 38 39 37 34
29 27 39 40 23 27 36 35 35 22 40 46 49 47 43 38 35 42 44 43 46 50 51 49 56 57 54 53 49 44 41 38 37 34 32 32 31 33 36 40 42 43 42 39 38 36 35 34 34
29 34 39 34 23 34 33 46 19 18 30 42 45 50 50 47 45 42 49 47 47 48 48 49 54 57 58 56 51 47 45 42 40 37 36 35 36 38 40 42 42 39 37 37 37 37 34 33 32
42 40 42 38 31 28 39 44 43 37 31 37 44 49 49 48 39 50 50 49 50 51 50 51 54 56 58 57 53 49 44 42 41 41 40 39 41 43 43 41 40 39 37 38 38 37 34 28 26
45 44 53 37 8 14 29 45 41 41 41 53 52 52 54 47 43 47 45 46 43 42 46 49 51 53 53 51 47 41 36 38 36 42 41 42 44 45 42 41 40 42 41 39 37 33 29 26 25
47 49 44 41 12 22 25 46 44 47 55 59 65 63 57 58 51 45 45 41 38 37 40 44 46 49 49 48 48 45 41 41 40 43 44 46 44 45 45 45 46 45 42 37 35 31 27 22 19
46 48 43 34 20 25 16 26 36 38 52 49 57 60 62 59 49 44 46 42 36 34 36 39 42 42 45 46 43 41 38 33 27 33 38 44 48 47 49 48 47 44 41 37 33 29 29 26 18
39 27 26 35 31 23 33 12 39 32 44 41 38 58 54 52 53 50 45 44 37 36 35 37 38 40 41 40 40 40 39 37 39 43 43 45 46 49 46 46 43 41 38 35 34 32 30 32 30
3 5 5 2 9 18 39 25 54 38 25 34 35 49 53 53 50 44 39 43 40 39 37 36 36 35 36 37 39 40 41 39 40 39 39 38 38 40 40 39 39 38 37 34 32 34 32 32 30
23 19 9 11 11 15 21 26 45 16 12 17 25 45 52 53 50 48 44 45 40 40 38 37 36 36 37 38 39 40 40 41 42 39 37 34 36 36 35 34 33 34 35 34 34 33 31 31 30
50 39 15 18 14 15 10 23 21 1 5 4 8 47 53 53 51 46 40 39 39 37 36 36 35 36 36 36 37 38 39 39 39 37 37 37 36 38 37 36 34 34 36 35 36 36 34 32 30
15 26 13 6 2 2 12 13 31 18 12 12 11 44 49 51 46 43 38 37 35 38 36 34 34 34 35 34 36 37 37 36 36 38 39 39 40 41 39 38 39 39 40 39 39 38 37 34 33
13 25 9 9 11 12 16 13 23 15 20 20 24 37 48 47 41 37 36 37 37 37 36 34 33 31 31 32 34 34 34 34 35 38 39 39 40 40 40 37 39 39 40 39 38 38 36 36 33
13 12 11 4 8 9 5 9 2 2 17 27 26 43 50 47 41 38 36 37 37 32 29 27 26 27 29 30 32 32 32 34 35 35 36 36 37 38 37 35 35 34 34 32 34 34 35 35 33
29 14 28 14 14 9 6 14 2 3 6 20 29 45 42 41 42 39 39 35 33 29 25 22 22 23 25 28 31 31 32 33 34 34 35 34 33 32 31 30 32 33 32 33 34 34 34 34 32
Wind_Direction_850mb
158 143 168 208 239 235 251 234 232 196 200 199 281 207 243 331 323 31 154 156 147 165 175 186 196 206 214 208 191 188 178 164 150 140 128 111 122 131 185 219 228 234 228 234 238 241 254 264 260
159 141 152 246 254 233 242 206 205 211 95 176 170 225 248 141 64 115 128 147 152 168 175 197 201 208 216 190 189 186 184 182 171 158 130 127 124 131 172 223 231 241 253 257 262 259 256 262 264
156 149 213 221 239 249 275 73 243 145 180 184 195 238 333 82 100 141 161 155 156 158 193 202 205 204 201 192 191 190 191 188 187 186 177 163 172 203 264 275 267 265 264 265 263 260 256 257 255
159 182 227 240 246 247 276 326 257 197 174 199 220 210 135 173 138 160 157 153 154 158 202 192 197 197 193 193 192 198 200 205 211 226 253 288 296 298 295 287 280 273 270 269 270 270 265 260 262
181 225 236 233 244 262 253 279 257 238 216 192 200 216 156 201 176 157 158 154 161 154 197 190 194 195 198 196 200 206 210 214 230 250 268 286 296 299 298 293 288 285 284 282 280 276 274 273 268
199 245 235 234 241 232 247 265 245 241 234 185 221 239 153 205 187 175 168 161 165 164 162 202 200 200 202 203 205 210 219 225 239 256 273 285 291 294 295 296 295 292 288 285 284 284 283 281 278
240 216 247 257 256 245 240 234 240 249 241 228 238 234 138 180 178 176 168 166 169 172 173 195 199 204 208 208 208 215 224 232 245 261 273 282 286 289 292 294 296 297 296 294 292 291 289 286 283
241 251 256 249 251 249 200 194 219 236 254 158 195 237 214 184 185 172 169 172 173 183 189 196 206 206 213 214 215 222 232 242 253 264 272 278 284 288 292 295 298 301 300 300 299 295 291 288 284
212 238 237 243 249 248 159 214 201 207 232 214 205 254 145 184 181 175 179 185 189 197 201 208 211 210 215 221 220 227 235 245 254 263 270 272 276 281 284 288 293 295 298 299 300 300 298 296 289
211 233 237 250 261 244 220 229 212 214 206 219 208 209 195 189 191 191 195 198 202 208 209 216 220 221 221 230 228 235 239 246 253 257 260 264 271 278 284 289 293 296 300 300 301 301 301 298 295
217 239 241 246 248 249 238 224 209 222 234 224 218 205 205 204 203 209 211 209 212 212 214 218 222 225 226 232 233 235 239 244 248 252 257 264 270 276 282 288 294 299 301 303 304 304 303 301 297
253 243 255 257 228 226 223 232 222 230 232 243 228 217 197 204 209 211 215 212 210 208 215 222 224 225 227 232 233 237 240 244 248 252 258 266 273 280 284 287 291 293 296 299 301 302 301 299 297
234 254 246 237 229 228 242 237 236 244 241 231 212 205 199 209 215 215 215 215 211 210 212 224 224 226 229 230 233 236 241 243 249 256 262 270 277 282 287 291 293 295 296 297 299 299 299 298 295
220 248 244 241 233 232 229 242 239 247 242 233 223 221 216 216 213 212 213 211 213 217 216 224 228 228 231 232 235 238 241 244 248 255 263 269 277 285 291 295 296 297 298 299 299 298 296 295 293
244 254 240 238 234 233 237 254 233 241 228 230 229 227 223 224 219 220 219 216 218 222 223 226 232 229 231 231 234 237 240 242 248 255 261 271 280 288 291 293 295 296 299 300 300 301 299 297 292
233 237 250 234 216 217 192 254 226 236 229 228 230 225 219 217 220 209 209 212 212 222 225 227 230 230 229 229 231 233 239 242 249 254 262 270 280 289 292 294 294 294 295 295 296 297 298 297 292
220 242 229 241 213 190 208 261 251 202 206 218 221 219 216 214 213 220 220 219 221 225 222 224 228 229 227 226 229 232 237 241 248 253 260 271 282 291 294 295 294 293 292 292 292 293 294 292 288
219 221 242 238 181 209 216 244 235 206 221 224 221 222 221 219 219 219 222 225 228 232 230 225 227 226 223 225 227 231 236 240 247 252 259 270 279 287 291 293 293 293 291 291 290 292 290 288 284
241 243 239 245 244 211 234 244 244 231 219 227 219 216 216 217 211 223 227 235 240 238 233 223 222 222 220 221 223 229 235 241 247 253 261 270 278 286 289 287 286 288 289 289 290 289 288 282 278
240 248 253 259 196 223 259 255 250 248 231 224 224 219 218 213 208 222 226 231 233 230 221 215 215 217 217 218 220 225 233 239 246 256 264 271 278 281 283 281 282 284 286 288 288 285 281 276 273
230 232 239 248 189 242 278 274 253 245 242 237 227 226 221 216 208 210 214 216 215 213 209 207 209 212 212 215 219 226 233 245 254 262 269 274 276 280 281 280 281 281 282 280 278 277 272 260 262
232 227 237 237 244 245 182 276 258 246 229 227 228 221 224 216 208 201 200 202 199 195 196 196 202 204 210 217 223 229 238 247 257 253 267 274 279 280 280 279 278 276 275 273 269 267 260 258 240
235 233 238 234 234 246 239 257 260 238 242 221 223 221 218 206 199 193 188 189 188 188 185 191 197 203 211 217 224 232 239 247 252 263 269 272 276 279 277 277 276 273 270 265 263 259 256 252 244
139 93 79 159 206 229 223 208 268 243 236 228 214 210 202 197 192 187 181 185 185 187 187 190 197 204 213 221 230 240 246 251 259 266 270 274 275 276 279 275 272 269 265 262 260 259 256 254 249
160 155 202 204 205 230 195 205 237 261 240 259 217 185 186 181 183 179 179 181 185 191 195 202 208 215 225 231 238 243 249 255 260 263 266 268 270 274 275 275 272 269 264 259 257 260 257 253 250
191 194 208 217 203 218 175 207 240 4 133 113 185 176 172 177 178 177 178 181 189 194 201 208 214 221 230 237 243 250 255 257 261 264 265 266 268 271 271 273 268 264 261 262 261 260 258 255 251
163 211 222 133 210 191 191 260 284 189 187 186 171 170 177 176 175 171 173 179 187 194 202 210 218 225 234 241 248 253 256 258 262 265 268 269 270 272 272 269 268 265 265 263 263 259 257 254 253
201 161 173 213 185 224 210 243 238 185 204 187 182 182 177 171 170 170 177 183 191 197 206 212 220 227 235 243 249 254 260 265 266 267 269 270 270 269 271 269 268 266 265 262 258 253 251 250 250
172 169 203 209 223 216 239 233 342 295 200 185 181 176 172 167 168 172 176 183 189 193 201 210 222 232 239 244 249 254 260 264 267 269 270 269 269 269 268 267 266 265 262 258 254 252 247 247 247
234 200 192 205 196 244 340 255 37 11 358 164 167 165 162 163 169 172 178 178 180 186 195 209 223 236 245 251 253 256 258 262 267 270 270 270 269 265 265 265 266 264 264 260 254 254 250 247 245